| time (UTC) | temp F | wind direction | speed MPH | gust MPH | rain 1hr in | rain 24hr in | rain mn in | humidity % | barometer mb |
| 20260509170517 | 61 | 68 | 1.0 | 4.0 | 0.00 | 0.00 | 0.00 | 64 | 1020.5 |
| 20260509165559 | 60 | 68 | 1.0 | 3.0 | 0.00 | 0.00 | 0.00 | 65 | 1020.7 |
| 20260509164517 | 60 | 45 | 1.0 | 2.0 | 0.00 | 0.00 | 0.00 | 66 | 1020.8 |
| 20260509163557 | 59 | 45 | 1.0 | 3.0 | 0.00 | 0.00 | 0.00 | 68 | 1020.8 |
| 20260509162517 | 59 | 90 | 1.0 | 3.0 | 0.00 | 0.00 | 0.00 | 69 | 1020.9 |
| 20260509161517 | 58 | 45 | 2.0 | 4.0 | 0.00 | 0.00 | 0.00 | 73 | 1020.9 |
| 20260509160517 | 58 | 0 | 2.0 | 4.0 | 0.00 | 0.00 | 0.00 | 71 | 1021.0 |
| 20260509155517 | 57 | 45 | 2.0 | 5.0 | 0.00 | 0.00 | 0.00 | 72 | 1021.0 |
| 20260509154517 | 56 | 23 | 1.0 | 2.0 | 0.00 | 0.00 | 0.00 | 74 | 1021.2 |
| 20260509153517 | 56 | 23 | 2.0 | 3.0 | 0.00 | 0.00 | 0.00 | 75 | 1021.2 |
| 20260509152517 | 55 | 0 | 1.0 | 3.0 | 0.00 | 0.00 | 0.00 | 76 | 1021.1 |
| 20260509151516 | 55 | 68 | 1.0 | 4.0 | 0.00 | 0.00 | 0.00 | 80 | 1021.0 |
| 20260509150537 | 54 | 45 | 1.0 | 3.0 | 0.00 | 0.00 | 0.00 | 77 | 1021.1 |
| 20260509145516 | 55 | 23 | 2.0 | 3.0 | 0.00 | 0.00 | 0.00 | 77 | 1021.1 |
| 20260509144516 | 54 | 0.0 | 1.0 | 0.00 | 0.00 | 0.00 | 74 | 1021.1 | |
| 20260509143517 | 53 | 248 | 1.0 | 2.0 | 0.00 | 0.00 | 0.00 | 77 | 1021.2 |
| 20260509142516 | 52 | 248 | 1.0 | 2.0 | 0.00 | 0.00 | 0.00 | 78 | 1021.1 |
| 20260509141517 | 51 | 0.0 | 0.0 | 0.00 | 0.00 | 0.00 | 80 | 1021.2 | |
| 20260509140516 | 50 | 0.0 | 1.0 | 0.00 | 0.00 | 0.00 | 85 | 1021.1 | |
| 20260509135536 | 48 | 0.0 | 0.0 | 0.00 | 0.00 | 0.00 | 88 | 1021.0 | |
| 20260509134517 | 47 | 248 | 1.0 | 2.0 | 0.00 | 0.00 | 0.00 | 88 | 1021.1 |
| 20260509133556 | 46 | 0.0 | 1.0 | 0.00 | 0.00 | 0.00 | 88 | 1020.9 | |
| 20260509132517 | 46 | 0.0 | 2.0 | 0.00 | 0.00 | 0.00 | 88 | 1021.0 | |
| 20260509131516 | 46 | 0.0 | 0.0 | 0.00 | 0.00 | 0.00 | 88 | 1020.9 | |
| 20260509130516 | 46 | 0.0 | 0.0 | 0.00 | 0.00 | 0.00 | 88 | 1020.9 | |
| 20260509125518 | 46 | 0.0 | 2.0 | 0.00 | 0.00 | 0.00 | 87 | 1020.7 | |
| 20260509124516 | 47 | 0.0 | 1.0 | 0.00 | 0.00 | 0.00 | 86 | 1020.6 | |
| 20260509123516 | 48 | 0.0 | 1.0 | 0.00 | 0.00 | 0.00 | 85 | 1020.6 | |
| 20260509122516 | 48 | 0.0 | 1.0 | 0.00 | 0.00 | 0.00 | 84 | 1020.5 | |
| 20260509121516 | 50 | 0.0 | 1.0 | 0.00 | 0.00 | 0.00 | 82 | 1020.6 | |
| 20260509120516 | 51 | 0.0 | 2.0 | 0.00 | 0.00 | 0.00 | 80 | 1020.6 | |
| 20260509115516 | 52 | 0.0 | 2.0 | 0.00 | 0.00 | 0.00 | 79 | 1020.6 | |
| 20260509114517 | 52 | 0.0 | 2.0 | 0.00 | 0.00 | 0.00 | 79 | 1020.6 | |
| 20260509113536 | 53 | 248 | 1.0 | 4.0 | 0.00 | 0.00 | 0.00 | 76 | 1020.4 |
| 20260509112516 | 54 | 270 | 1.0 | 4.0 | 0.00 | 0.00 | 0.00 | 75 | 1020.6 |
| 20260509111516 | 55 | 270 | 2.0 | 6.0 | 0.00 | 0.00 | 0.00 | 74 | 1020.4 |
| 20260509110556 | 55 | 248 | 1.0 | 4.0 | 0.00 | 0.00 | 0.00 | 74 | 1020.4 |
| 20260509105556 | 55 | 248 | 1.0 | 4.0 | 0.00 | 0.00 | 0.00 | 74 | 1020.5 |
| 20260509104516 | 54 | 293 | 2.0 | 4.0 | 0.00 | 0.00 | 0.00 | 75 | 1020.5 |
| 20260509103518 | 54 | 293 | 2.0 | 5.0 | 0.00 | 0.00 | 0.00 | 76 | 1020.4 |
| 20260509102516 | 54 | 180 | 1.0 | 4.0 | 0.00 | 0.00 | 0.00 | 77 | 1020.7 |
| 20260509101536 | 53 | 0.0 | 2.0 | 0.00 | 0.00 | 0.00 | 77 | 1020.6 | |
| 20260509100537 | 53 | 0.0 | 2.0 | 0.00 | 0.00 | 0.00 | 77 | 1020.6 | |
| 20260509095516 | 54 | 0.0 | 1.0 | 0.00 | 0.00 | 0.00 | 75 | 1020.6 | |
| 20260509094516 | 55 | 180 | 2.0 | 5.0 | 0.00 | 0.00 | 0.00 | 74 | 1020.6 |
| 20260509093516 | 54 | 225 | 1.0 | 2.0 | 0.00 | 0.00 | 0.00 | 76 | 1020.7 |
| 20260509092515 | 54 | 0.0 | 1.0 | 0.00 | 0.00 | 0.00 | 76 | 1020.6 | |
| 20260509091516 | 54 | 225 | 1.0 | 4.0 | 0.00 | 0.00 | 0.00 | 75 | 1020.7 |
| 20260509090516 | 55 | 0.0 | 1.0 | 0.00 | 0.00 | 0.00 | 73 | 1020.9 | |
| 20260509085516 | 56 | 225 | 1.0 | 2.0 | 0.00 | 0.00 | 0.00 | 72 | 1020.9 |
| 20260509084515 | 56 | 270 | 3.0 | 12.0 | 0.00 | 0.00 | 0.00 | 72 | 1021.0 |
| 20260509083516 | 57 | 293 | 1.0 | 3.0 | 0.00 | 0.00 | 0.00 | 70 | 1020.9 |
| 20260509082516 | 57 | 270 | 3.0 | 9.0 | 0.00 | 0.00 | 0.00 | 70 | 1021.1 |
| 20260509081515 | 56 | 270 | 3.0 | 9.0 | 0.00 | 0.00 | 0.00 | 72 | 1021.2 |
| 20260509080516 | 55 | 248 | 1.0 | 3.0 | 0.00 | 0.00 | 0.00 | 73 | 1021.2 |
| 20260509075537 | 56 | 248 | 1.0 | 2.0 | 0.00 | 0.00 | 0.00 | 72 | 1021.2 |
| 20260509074515 | 56 | 180 | 1.0 | 3.0 | 0.00 | 0.00 | 0.00 | 70 | 1021.1 |
| 20260509073516 | 57 | 270 | 2.0 | 5.0 | 0.00 | 0.00 | 0.00 | 69 | 1021.2 |
| 20260509072516 | 57 | 270 | 1.0 | 5.0 | 0.00 | 0.00 | 0.00 | 68 | 1021.3 |
| 20260509071516 | 58 | 270 | 3.0 | 7.0 | 0.00 | 0.00 | 0.00 | 67 | 1021.2 |
| 20260509070516 | 58 | 270 | 2.0 | 6.0 | 0.00 | 0.00 | 0.00 | 67 | 1021.4 |
| 20260509065537 | 58 | 270 | 2.0 | 6.0 | 0.00 | 0.00 | 0.00 | 67 | 1021.4 |
| 20260509064517 | 58 | 225 | 1.0 | 4.0 | 0.00 | 0.00 | 0.00 | 67 | 1021.6 |
| 20260509063517 | 58 | 270 | 1.0 | 4.0 | 0.00 | 0.00 | 0.00 | 66 | 1021.6 |
| 20260509062517 | 58 | 270 | 2.0 | 7.0 | 0.00 | 0.00 | 0.00 | 67 | 1021.5 |
| 20260509061517 | 58 | 270 | 2.0 | 11.0 | 0.00 | 0.00 | 0.00 | 67 | 1021.6 |
| 20260509060517 | 57 | 270 | 1.0 | 5.0 | 0.00 | 0.00 | 0.00 | 68 | 1021.3 |
| 20260509055517 | 57 | 270 | 1.0 | 2.0 | 0.00 | 0.00 | 0.00 | 69 | 1021.4 |
| 20260509054538 | 57 | 270 | 1.0 | 4.0 | 0.00 | 0.00 | 0.00 | 68 | 1021.4 |
| 20260509053552 | 57 | 293 | 1.0 | 4.0 | 0.00 | 0.00 | 0.00 | 68 | 1021.4 |
| 20260509053019 | 57 | 293 | 1.0 | 2.0 | 0.00 | 0.00 | 0.00 | 68 | 1021.3 |
| 20260509052017 | 58 | 293 | 1.0 | 2.0 | 0.00 | 0.00 | 0.00 | 67 | 1021.3 |
| 20260509051017 | 58 | 293 | 1.0 | 4.0 | 0.00 | 0.00 | 0.00 | 66 | 1021.3 |
| 20260509050016 | 59 | 248 | 1.0 | 7.0 | 0.00 | 0.00 | 0.00 | 65 | 1021.2 |
| 20260509045017 | 59 | 248 | 2.0 | 5.0 | 0.00 | 0.00 | 0.00 | 64 | 1021.2 |
| 20260509044017 | 58 | 180 | 3.0 | 7.0 | 0.00 | 0.00 | 0.00 | 65 | 1021.1 |
| 20260509043017 | 58 | 180 | 1.0 | 4.0 | 0.00 | 0.00 | 0.00 | 64 | 1020.9 |
| 20260509042057 | 59 | 270 | 2.0 | 5.0 | 0.00 | 0.00 | 0.00 | 62 | 1020.9 |
| 20260509041017 | 59 | 248 | 1.0 | 4.0 | 0.00 | 0.00 | 0.00 | 62 | 1020.7 |
| 20260509040018 | 60 | 293 | 2.0 | 6.0 | 0.00 | 0.00 | 0.00 | 61 | 1020.6 |
| 20260509035017 | 60 | 270 | 2.0 | 6.0 | 0.00 | 0.00 | 0.00 | 61 | 1020.5 |
| 20260509034017 | 60 | 45 | 1.0 | 2.0 | 0.00 | 0.00 | 0.00 | 61 | 1020.3 |
| 20260509033017 | 61 | 270 | 2.0 | 7.0 | 0.00 | 0.00 | 0.00 | 59 | 1020.1 |
| 20260509032037 | 61 | 225 | 2.0 | 9.0 | 0.00 | 0.00 | 0.00 | 59 | 1019.9 |
| 20260509031017 | 61 | 248 | 1.0 | 3.0 | 0.00 | 0.00 | 0.00 | 58 | 1019.8 |
| 20260509030017 | 61 | 270 | 3.0 | 6.0 | 0.00 | 0.00 | 0.00 | 58 | 1019.7 |
| 20260509025017 | 62 | 158 | 1.0 | 3.0 | 0.00 | 0.00 | 0.00 | 57 | 1019.5 |
| 20260509024022 | 62 | 270 | 3.0 | 7.0 | 0.00 | 0.00 | 0.00 | 55 | 1019.5 |
| 20260509023036 | 62 | 315 | 3.0 | 11.0 | 0.00 | 0.00 | 0.00 | 55 | 1019.3 |
| 20260509022057 | 63 | 270 | 2.0 | 6.0 | 0.00 | 0.00 | 0.00 | 55 | 1019.3 |
| 20260509021017 | 63 | 293 | 5.0 | 12.0 | 0.00 | 0.00 | 0.00 | 53 | 1019.1 |
| 20260509020017 | 64 | 270 | 5.0 | 12.0 | 0.00 | 0.00 | 0.00 | 53 | 1019.1 |
| 20260509015017 | 64 | 270 | 4.0 | 11.0 | 0.00 | 0.00 | 0.00 | 52 | 1019.0 |
| 20260509014017 | 64 | 270 | 6.0 | 20.0 | 0.00 | 0.00 | 0.00 | 51 | 1019.0 |
| 20260509013016 | 65 | 248 | 5.0 | 11.0 | 0.00 | 0.00 | 0.00 | 51 | 1019.1 |
| 20260509012016 | 65 | 248 | 5.0 | 15.0 | 0.00 | 0.00 | 0.00 | 50 | 1019.2 |
| 20260509011017 | 65 | 270 | 5.0 | 17.0 | 0.00 | 0.00 | 0.00 | 50 | 1019.2 |
| 20260509010016 | 65 | 293 | 5.0 | 13.0 | 0.00 | 0.00 | 0.00 | 49 | 1019.0 |
| 20260509005017 | 65 | 270 | 4.0 | 11.0 | 0.00 | 0.00 | 0.00 | 49 | 1019.1 |
| 20260509004016 | 66 | 270 | 6.0 | 14.0 | 0.00 | 0.00 | 0.00 | 49 | 1019.1 |
| 20260509003016 | 66 | 270 | 5.0 | 19.0 | 0.00 | 0.00 | 0.00 | 47 | 1019.1 |
| 20260509002037 | 66 | 248 | 4.0 | 12.0 | 0.00 | 0.00 | 0.00 | 47 | 1019.1 |
| 20260509001016 | 66 | 248 | 6.0 | 14.0 | 0.00 | 0.00 | 0.00 | 47 | 1019.1 |
| 20260509000016 | 66 | 270 | 6.0 | 14.0 | 0.00 | 0.00 | 0.00 | 45 | 1019.0 |
| 20260508235016 | 66 | 270 | 6.0 | 21.0 | 0.00 | 0.00 | 0.00 | 43 | 1019.1 |
| 20260508234016 | 67 | 293 | 4.0 | 14.0 | 0.00 | 0.00 | 0.00 | 43 | 1019.0 |
| 20260508233016 | 66 | 270 | 6.0 | 15.0 | 0.00 | 0.00 | 0.00 | 44 | 1019.0 |
| 20260508232055 | 66 | 270 | 4.0 | 11.0 | 0.00 | 0.00 | 0.00 | 45 | 1019.1 |
| 20260508231100 | 66 | 270 | 5.0 | 15.0 | 0.00 | 0.00 | 0.00 | 40 | 1019.1 |
| 20260508230017 | 66 | 270 | 4.0 | 11.0 | 0.00 | 0.00 | 0.00 | 46 | 1019.0 |
| 20260508225016 | 66 | 270 | 4.0 | 13.0 | 0.00 | 0.00 | 0.00 | 47 | 1019.1 |
| 20260508224016 | 65 | 248 | 5.0 | 16.0 | 0.00 | 0.00 | 0.00 | 46 | 1019.2 |
| 20260508223016 | 65 | 315 | 6.0 | 20.0 | 0.00 | 0.00 | 0.00 | 45 | 1019.0 |
| 20260508222016 | 65 | 248 | 7.0 | 15.0 | 0.00 | 0.00 | 0.00 | 46 | 1019.1 |
| 20260508221016 | 65 | 293 | 6.0 | 21.0 | 0.00 | 0.00 | 0.00 | 48 | 1019.2 |
| 20260508220016 | 64 | 270 | 6.0 | 19.0 | 0.00 | 0.00 | 0.00 | 49 | 1019.1 |
| 20260508215016 | 65 | 315 | 5.0 | 12.0 | 0.00 | 0.00 | 0.00 | 48 | 1018.9 |
| 20260508214016 | 65 | 315 | 4.0 | 12.0 | 0.00 | 0.00 | 0.00 | 53 | 1019.0 |
| 20260508213018 | 64 | 270 | 7.0 | 18.0 | 0.00 | 0.00 | 0.00 | 50 | 1019.0 |
| 20260508212016 | 64 | 293 | 7.0 | 15.0 | 0.00 | 0.00 | 0.00 | 51 | 1019.0 |
| 20260508211018 | 63 | 270 | 6.0 | 16.0 | 0.00 | 0.00 | 0.00 | 53 | 1019.0 |
| 20260508210016 | 63 | 270 | 6.0 | 18.0 | 0.00 | 0.00 | 0.00 | 53 | 1019.1 |
| 20260508205015 | 63 | 293 | 7.0 | 17.0 | 0.00 | 0.00 | 0.00 | 55 | 1019.2 |
| 20260508204017 | 63 | 270 | 6.0 | 19.0 | 0.00 | 0.00 | 0.00 | 53 | 1019.1 |
| 20260508203016 | 63 | 270 | 5.0 | 16.0 | 0.00 | 0.00 | 0.00 | 55 | 1018.9 |
| 20260508202015 | 62 | 270 | 6.0 | 18.0 | 0.00 | 0.00 | 0.00 | 56 | 1018.9 |
| 20260508201016 | 62 | 270 | 6.0 | 16.0 | 0.00 | 0.00 | 0.00 | 57 | 1019.0 |
| 20260508200035 | 62 | 270 | 8.0 | 18.0 | 0.00 | 0.00 | 0.00 | 53 | 1019.0 |
| 20260508195016 | 62 | 293 | 5.0 | 12.0 | 0.00 | 0.00 | 0.00 | 55 | 1019.0 |
| 20260508194016 | 61 | 270 | 6.0 | 16.0 | 0.00 | 0.00 | 0.00 | 56 | 1019.0 |
| 20260508193016 | 61 | 270 | 6.0 | 26.0 | 0.00 | 0.00 | 0.00 | 55 | 1019.0 |
| 20260508192036 | 61 | 270 | 7.0 | 19.0 | 0.00 | 0.00 | 0.00 | 59 | 1018.9 |
| 20260508191017 | 60 | 270 | 8.0 | 18.0 | 0.00 | 0.00 | 0.00 | 58 | 1019.0 |
| 20260508190037 | 61 | 293 | 5.0 | 12.0 | 0.00 | 0.00 | 0.00 | 58 | 1019.0 |
| 20260508185017 | 61 | 293 | 5.0 | 17.0 | 0.00 | 0.00 | 0.00 | 61 | 1019.1 |
| 20260508184038 | 58 | 315 | 6.0 | 18.0 | 0.00 | 0.00 | 0.00 | 63 | 1019.4 |
| 20260508183036 | 58 | 270 | 8.0 | 23.0 | 0.00 | 0.00 | 0.00 | 63 | 1019.4 |
| 20260508182017 | 58 | 270 | 7.0 | 16.0 | 0.00 | 0.00 | 0.00 | 61 | 1018.9 |
| 20260508181017 | 56 | 293 | 6.0 | 17.0 | 0.00 | 0.00 | 0.00 | 63 | 1018.7 |
| 20260508180037 | 54 | 270 | 6.0 | 19.0 | 0.00 | 0.00 | 0.00 | 64 | 1018.8 |
| 20260508175017 | 54 | 293 | 6.0 | 15.0 | 0.00 | 0.00 | 0.00 | 66 | 1018.6 |
| 20260508174015 | 53 | 270 | 5.0 | 10.0 | 0.00 | 0.00 | 0.00 | 66 | 1018.6 |
| 20260508173019 | 54 | 270 | 7.0 | 16.0 | 0.00 | 0.00 | 0.00 | 64 | 1018.6 |
| 20260508172017 | 54 | 270 | 6.0 | 17.0 | 0.00 | 0.00 | 0.00 | 64 | 1018.4 |
| 20260508171019 | 54 | 270 | 5.0 | 19.0 | 0.00 | 0.00 | 0.00 | 65 | 1018.2 |